Flag Weather past 2 weeks in Santos, São Paulo, Brazil

Now
64 °F

Clear.


Feels Like: 64 °F
Forecast: 74 / 78 °F
Wind: 7 mph from East

Location: Sao Paulo Airport

Current Time: Nov 28, 2014 at 1:19:40 AM

Latest Report: Nov 28, 2014 at 1:00 AM


Visibility: 10 mi

Pressure: 30.04 "Hg

Humidity: 83%

Dew point: 59 °F

Location of SantosLocation

Historic Weather in Santos — Graph

°F

Santos temperature yesterday

Maximum temperature yesterday: 75 °F (at 12:00 PM)
Minimum temperature yesterday: 64 °F (at 11:00 PM)
Average temperature yesterday: 70 °F

Past Weeks' High & Low Weather Summary

 TemperatureHumidityPressure
High88 °F (Nov 21, 2:00 PM)94% (Nov 23, 10:00 PM)30.18 "Hg (Nov 23, 10:00 PM)
Low54 °F (Nov 17, 6:00 AM)31% (Nov 19, 3:00 PM)29.83 "Hg (Nov 13, 2:00 AM)
Average69 °F72%30.03 "Hg
* Reported Midnight between Nov 12 and Nov 13 — Midnight between Nov 27 and Nov 28, Santos, Weather by CustomWeather, © 2014

Note: Actual official high and low records may vary slightly from our data, if they occured in-between our weather recording intervals... More about our weather records

Advertising

Santos weather history for previous 24 hours

 ConditionsComfort  
Time TempWeatherWind HumidityBarometerVisibility
12:00 AM
Nov 28
64 °FPassing clouds.9 mph83%30.07 "HgN/A
11:00 PM
Nov 27
64 °FClear.9 mph83%30.07 "Hg10 mi
10:00 PM66 °FPartly cloudy.13 mph83%30.07 "HgN/A
9:00 PM66 °FPassing clouds.9 mph88%30.04 "HgN/A
8:00 PM68 °FLow clouds.12 mph83%30.01 "HgN/A
7:00 PM68 °FPartly sunny.15 mph83%30.01 "HgN/A
6:00 PM70 °FBroken clouds.13 mph78%29.98 "HgN/A
5:00 PM72 °FScattered clouds.10 mph78%29.98 "HgN/A
4:00 PM73 °FBroken clouds.14 mph74%29.98 "HgN/A
3:00 PM75 °FBroken clouds.10 mph69%30.01 "HgN/A
2:00 PM73 °FMore clouds than sun.12 mph74%30.01 "HgN/A
1:00 PM75 °FPartly sunny.7 mph69%30.01 "HgN/A
12:00 PM75 °FPartly sunny.10 mph65%30.01 "HgN/A
11:00 AM73 °FPartly sunny.9 mph69%30.04 "HgN/A
10:00 AM72 °FBroken clouds.9 mph78%30.04 "HgN/A
9:00 AM70 °FPartly sunny.8 mph83%30.01 "HgN/A
8:00 AM70 °FPartly sunny.7 mph83%30.01 "HgN/A
7:00 AM68 °FPartly sunny.8 mph88%29.98 "HgN/A
6:00 AM68 °FPartly cloudy.6 mph88%29.95 "HgN/A
5:00 AM68 °FLight rain. Mostly cloudy.5 mph88%29.95 "HgN/A
4:00 AM68 °FLight rain. Passing clouds.1 mph88%29.95 "HgN/A
3:00 AM70 °FPartly cloudy.2 mph88%29.95 "HgN/A
2:00 AM70 °FLight rain. Mostly cloudy.7 mph88%29.95 "HgN/A
1:00 AM70 °FMostly cloudy.5 mph88%29.98 "HgN/A
Weather by CustomWeather, © 2014

See weather overviewHow to use our weather pages